Regional Weather Roundup
Issued by NWS

Home | Current Version | Previous Version | Graphics & Text | Print | Product List | Glossary On
Versions: 1 2 3 4 5 6 7 8 9 10 11 12 13 14 15 16 17 18 19 20 21 22 23 24 25 26 27 28 29 30 31 32 33 34 35 36 37 38 39 40 41 42 43 44 45 46 47 48 49 50
539
ASUS45 KBOU 162107
RWRCO

WEATHER ROUNDUP FOR COLORADO
NATIONAL WEATHER SERVICE DENVER/BOULDER CO
200 PM MST MON JAN 16 2017

NOTE: "FAIR" INDICATES FEW OR NO CLOUDS BELOW 12000 FEET WITH NO
SIGNIFICANT WEATHER AND/OR OBSTRUCTIONS TO VISIBILITY.

COZ001>005-013-030-031-162200-
...NORTHWEST COLORADO...

CITY           SKY/WX    TMP DP  RH WIND       PRES   REMARKS
CRAIG          CLOUDY    20  12  71 W6        30.13F WCI  12
HAYDEN         CLOUDY    18  12  79 W6        30.10F WCI   9
MEEKER         CLOUDY    27  16  63 VRB3      30.09F
MOUNT WERNER   NOT AVBL
STEAMBOAT SPGS CLOUDY    20  17  88 SW6       30.08S WCI  12
WALDEN           N/A    N/A N/A N/A CALM      30.04S
$$

COZ006>008-011-162200-
...WEST CENTRAL VALLEYS...

CITY           SKY/WX    TMP DP  RH WIND       PRES   REMARKS
GRAND JUNCTION FAIR      41  16  36 VRB3      30.04F
MONTROSE       CLOUDY    34  22  61 CALM      30.06F
EAGLE          SUNNY     34  25  69 CALM      30.02F
RIFLE          FAIR      35  20  54 VRB6      30.05F WCI  30
DELTA          CLOUDY    39  29  68 CALM      30.05F
NUCLA          CLOUDY    39  21  48 NW5       30.03S
$$

COZ017>023-064>068-162200-
...SOUTHWEST COLORADO...

CITY           SKY/WX    TMP DP  RH WIND       PRES   REMARKS
DURANGO        CLOUDY    36  29  75 SE5       29.96S
CORTEZ         FLURRIES  38  30  73 W6        29.97S
PAGOSA SPRINGS LGT SNOW  35  33  95 S5        29.97R WCI  30
TELLURIDE      LGT SNOW  29  25  85 W6        29.98F WCI  23
WOLF CREEK PAS CLOUDY    21  21 100 N6        30.03R WCI  14
$$

COZ009-010-012-014-032>034-037-058>063-162200-
...CENTRAL COLORADO...

CITY           SKY/WX    TMP DP  RH WIND       PRES   REMARKS
ASPEN          FAIR      32  25  75 N6        29.98S WCI  26
BUENA VISTA    CLOUDY    36  26  66 S7        29.97S
COPPER MTN     CLOUDY    25  19  80 CALM      30.02R
BERTHOUD PASS  NOT AVBL
COTTONWOOD PAS FLURRIES  32  27  80 E8        30.00S WCI  25
GUNNISON       FAIR      28  24  85 SE5       29.99S WCI  23
KREMMLING      FAIR      37  27  65 CALM      30.02F
LEADVILLE      CLOUDY    27  20  75 S9        29.96S WCI  18
MONARCH PASS   CLOUDY    21  19  93 MISG      30.06R
SALIDA         CLOUDY    37  33  88 SE5       30.06S
SUNLIGHT       CLOUDY    23  21  93 NE3       30.04S FOG
WILKERSON PASS FOG      N/A N/A N/A NE9       30.02R VSB 3/4
$$

COZ069>075-162200-
...SAN LUIS VALLEY/SANGRE DE CRISTO MOUNTAINS...

CITY           SKY/WX    TMP DP  RH WIND       PRES   REMARKS
ALAMOSA        LGT SNOW  32  32 100 S8        29.96R VSB 3/4 WCI  25
LA VETA PASS   LGT SNOW  27  23  86 S6        29.99R WCI  20
SAGUACHE       CLOUDY    36  30  80 SE3       29.97R
$$

COZ035-036-038>040-162200-
...NORTHERN COLORADO FRONT RANGE...

CITY           SKY/WX    TMP DP  RH WIND       PRES   REMARKS
DENVER INTL AP CLOUDY    33  27  78 W9        30.05F WCI  25
DMNS CITY PARK   N/A     35  26  71 MISG      30.06S
AURORA         FLURRIES  32  29  90 CALM      30.06F
FRONT RANGE AP CLOUDY    36  30  80 W8        30.06
ERIE MUNI ARPT CLOUDY    36  31  80 CALM      30.06S
BOULDER MUN AP CLOUDY    37  28  70 CALM      30.06S
CENTENNIAL     LGT SNOW  31  27  85 NW3       30.06S FOG
BROOMFIELD     CLOUDY    36  28  75 CALM      30.06F
FORT COLLINS   PTSUNNY   39  25  56 N9        30.06S
LONGMONT       CLOUDY    40  30  67 CALM      30.08S
$$

COZ041-046-047-076>085-087-088-162200-
...PIKES PEAK/PALMER DIVIDE AND SOUTHERN FOOTHILLS...

CITY           SKY/WX    TMP DP  RH WIND       PRES   REMARKS
COLO. SPRINGS  CLOUDY    33  24  69 NW21G32   30.01R WCI  21
A. F. ACADEMY  CLOUDY    31  23  72 N22G29    30.01R WCI  18
SCHRIEVER AFB  NOT AVBL
ELLICOTT       CLOUDY   N/A N/A N/A N28G37    29.98R
FALCON         CLOUDY    31  24  74 N18G32    30.01R WCI  19
FORT CARSON    NOT AVBL
LIMON          LGT SNOW  30  28  92 NW17G25   30.01R FOG     WCI  18
MONUMENT HILL  CLOUDY    27  23  86 NW17      30.04S WCI  14
TRINIDAD       SNOW      32  29  88 NW6       30.03R VSB 1/4 WCI  26
$$

COZ042>045-048>051-090-091-162200-
...NORTHEAST COLORADO...

CITY           SKY/WX    TMP DP  RH WIND       PRES   REMARKS
GREELEY ARPT   CLOUDY    40  18  41 N10       30.07F
AKRON          CLOUDY    34  23  64 NW16      30.02S WCI  24
BURLINGTON     MIX PCPN  33  31  92 N20G30    29.97R FOG     WCI  21
WRAY           CLOUDY    36  30  80 NW17G23   30.00S
STERLING       CLOUDY    37  27  65 N16       30.03R
HOLYOKE        FAIR      37  27  65 NW20G26   30.00S
FORT MORGAN    CLOUDY    38  22  51 N12       30.05S
$$

COZ086-089-092>099-162200-
...SOUTHEAST COLORADO...

CITY           SKY/WX    TMP DP  RH WIND       PRES   REMARKS
PUEBLO         LGT RAIN  37  30  75 N15       30.03R
LA JUNTA       LGT SNOW  34  31  88 NW13      30.01S VSB 3/4 WCI  25
LAMAR          CLOUDY    34  31  88 NW8       29.97R WCI  27
SPRINGFIELD      N/A     34  31  88 NW22G30   29.96R WCI  22
$$




USA.gov is the U.S. government's official web portal to all federal, state and local government web resources and services.